Preview of NWS' New Version of Forecast
This preview is not operational and should not be used for support decisions.

Regional Weather Roundup (RWR)

Issued by National Weather Service (NWS)

                            
000
ASUS43 KLSX 191157
RWRMO 

WEATHER SUMMARY FOR MISSOURI
NATIONAL WEATHER SERVICE SPRINGFIELD MO
600 AM CST TUE FEB 19 2019

NOTE: "FAIR" INDICATES FEW OR NO CLOUDS BELOW 12,000 FEET WITH NO
       SIGNIFICANT WEATHER AND/OR OBSTRUCTIONS TO VISIBILITY.
       CURRENT SKY AND/OR WEATHER CONDITIONS ARE NOT AVAILABLE FOR
       CHILLICOTHE AND FARMINGTON.

MOZ001>031-035>038-043-044-053-054-191300-
...NORTHERN AND WESTERN MISSOURI...
  
CITY           SKY/WX    TMP DP  RH WIND       PRES   REMARKS
KANSAS CTY INT CLOUDY    17  12  80 NE8       30.49S WCI   7          
6HR MIN TEMP:  16; 6HR MAX TEMP:  20;                                

LEE'S SUMMIT   CLOUDY    21  16  81 MISG      30.47F                  
6HR MIN TEMP:  19; 6HR MAX TEMP:  21;                                

ST JOSEPH      CLOUDY    13  10  88 N5        30.52S WCI   5          
6HR MIN TEMP:  11; 6HR MAX TEMP:  15;                                

CHILLICOTHE      N/A     20  15  81 NE6       30.54F WCI  12          
6HR MIN TEMP:  17; 6HR MAX TEMP:  20;                                

     
$$
MOZ066>068-077>081-088>096-101>105-191300-
...SOUTHWEST MISSOURI...
  
CITY           SKY/WX    TMP DP  RH WIND       PRES   REMARKS
SPRINGFIELD    CLOUDY    26  17  68 E10       30.40F WCI  16          
6HR MIN TEMP:  25; 6HR MAX TEMP:  26;                                

JOPLIN         CLOUDY    26  19  74 NE5       30.39F WCI  20          
6HR MIN TEMP:  26; 6HR MAX TEMP:  26;                                

               
$$
MOZ032>034-039>042-045>050-055>058-069>072-191300-
...CENTRAL MISSOURI...  
  
CITY           SKY/WX    TMP DP  RH WIND       PRES   REMARKS
COLUMBIA       NOT AVBL                                               
JEFFERSON CITY CLOUDY    22  16  78 SE3       30.53F                  
6HR MIN TEMP:  21; 6HR MAX TEMP:  24;                                

ROLLA          PTCLDY    22  16  78 E9        30.48F WCI  12          
6HR MIN TEMP:  21; 6HR MAX TEMP:  23;                                

SEDALIA        CLOUDY    21  17  84 E7        30.51R WCI  12          
6HR MIN TEMP:  16; 6HR MAX TEMP:  22;                                

WARRENSBURG    CLOUDY    19  18  93 NE6       30.50F WCI  11          
               
$$
MOZ051-052-059>065-191300-
...EAST CENTRAL MISSOURI...
  
CITY           SKY/WX    TMP DP  RH WIND       PRES   REMARKS
ST LOUIS INTL  CLOUDY    24  18  77 E6        30.57F WCI  17          
6HR MIN TEMP:  24; 6HR MAX TEMP:  28;                                

                   
$$
MOZ072>076-082>087-097>100-106>115-191300-
...SOUTH CENTRAL AND SOUTHEAST MISSOURI...
  
CITY           SKY/WX    TMP DP  RH WIND       PRES   REMARKS
CAPE GIRARDEAU FAIR      30  22  72 NE12      30.54S WCI  20          
6HR MIN TEMP:  28; 6HR MAX TEMP:  30;                                

POPLAR BLUFF   FAIR      30  23  75 NE9       30.52F WCI  22          
6HR MIN TEMP:  29; 6HR MAX TEMP:  30;                                

WEST PLAINS    CLOUDY    25  19  78 E10       30.44F WCI  15          
6HR MIN TEMP:  25; 6HR MAX TEMP:  26;                                

                                       
$$